Simultaneous Nadir Overpasses (SNOs) Predictions

Prediction of SNOs between NOAA-19 and TERRA Satellite Orbit:

Table of predicted SNOs for the next 14.0 days since TLE Epoch: 3/5/2022
Index Date (NOAA-19) Time (NOAA-19) Lat,Lon (NOAA-19) SZA (NOAA-19 ) Date (TERRA) Time (TERRA) Lat,Lon (TERRA) SZA (TERRA ) Distance(km) Time Diff (sec)
1 03/05/2022 05:48:44 80.68, 128.24 88.13 03/05/2022 05:49:49 80.68, 128.22 88.15 0.36 65
2 03/05/2022 06:39:40 -80.67, -64.17 91.87 03/05/2022 06:39:16 -80.67, -64.21 91.88 0.83 24
3 03/07/2022 12:12:45 80.68, 32.34 87.28 03/07/2022 12:12:56 80.68, 32.52 87.30 3.36 11
4 03/09/2022 17:45:44 -80.68, 129.16 93.58 03/09/2022 17:46:37 -80.69, 129.10 93.56 1.55 53
5 03/09/2022 18:36:46 80.68, -63.59 86.41 03/09/2022 18:36:04 80.66, -63.56 86.39 2.07 42
6 03/12/2022 00:09:45 -80.67, 33.41 94.43 03/12/2022 00:09:44 -80.69, 33.31 94.43 2.51 1
7 03/14/2022 05:42:48 80.68, 129.91 84.70 03/14/2022 05:43:24 80.68, 129.82 84.70 1.53 36
8 03/14/2022 06:33:46 -80.67, -62.38 95.29 03/14/2022 06:32:51 -80.68, -62.54 95.32 3.41 55
9 03/16/2022 11:15:55 -80.75,-135.59 96.30 03/16/2022 11:17:09 -80.55,-135.00 96.40 24.69 74
10 03/16/2022 12:06:49 80.69, 33.86 83.82 03/16/2022 12:06:31 80.67, 33.90 83.80 1.89 18
11 03/18/2022 17:39:50 -80.68, 130.72 97.04 03/18/2022 17:40:11 -80.69, 130.66 97.04 1.10 21



Historial Predications of SNOs between NOAA-19 and TERRA
